Regional Weather Roundup
Issued by NWS

Home | Current Version | Previous Version | Text Only | Print | Product List | Glossary On
Versions: 1 2 3 4 5 6 7 8 9 10 11 12 13 14 15 16 17 18 19 20 21 22 23 24 25 26 27 28 29 30 31 32 33 34 35 36 37 38 39 40 41 42 43 44 45 46 47 48 49 50
000
ASUS45 KBOI 181310
RWRID
WEATHER ROUNDUP FOR IDAHO
NATIONAL WEATHER SERVICE BOISE ID
700 AM MDT THU SEP 18 2014

NOTE: "FAIR" INDICATES FEW OR NO CLOUDS BELOW 12000 FEET
WITH NO SIGNIFICANT WEATHER AND/OR OBSTRUCTIONS TO VISIBILITY

IDZ012-014-181400-
SOUTHWEST IDAHO


CITY           SKY/WX    TMP DP  RH WIND       PRES   REMARKS
BOISE          MOCLDY    69  42  37 E3        29.78R
CALDWELL       MOCLDY    64  48  55 S5        29.77S
MOUNTAIN HOME  PTCLDY    69  45  40 N13       29.77R
$$

IDZ016-017-181400-
SOUTHCENTRAL IDAHO


CITY           SKY/WX    TMP DP  RH WIND       PRES   REMARKS
BURLEY         MOCLDY    65  49  56 VRB3      29.83R
JEROME         PTCLDY    67  47  48 SE5       29.82R
TWIN FALLS     PTCLDY    71  44  37 S12       29.83R
$$

IDZ019>023-181400-
SOUTHEAST IDAHO


CITY           SKY/WX    TMP DP  RH WIND       PRES   REMARKS
IDAHO FALLS    CLOUDY    64  47  53 NW13G20   29.92R
POCATELLO      PTCLDY    71  43  36 W16G31    29.89R
REXBURG        CLOUDY    63  45  51 N7        29.91R THUNDER
$$

IDZ006-010-011-018-031-032-181400-
CENTRAL IDAHO MOUNTAINS


CITY           SKY/WX    TMP DP  RH WIND       PRES   REMARKS
MCCALL         CLOUDY    56  43  61 NW3       29.89R
HAILEY         MOCLDY    61  52  72 W8        29.93R
STANLEY          N/A     47  41  80 W3        29.99F
SALMON         CLOUDY    55  46  71 S6        29.87S
CHALLIS        MOCLDY    55  47  74 N5        29.93F
$$

IDZ002-004-006-007-026-181400-
NORTHERN IDAHO


CITY           SKY/WX    TMP DP  RH WIND       PRES   REMARKS
LEWISTON       PTCLDY    64  46  52 CALM      29.67R
LOWELL           N/A     58  55  90 CALM      29.73R
COEUR D`ALENE  MOCLDY    52  45  76 E5        29.68S
MULLAN PASS    CLOUDY    61  34  36 SW8       29.86S
$$



USA.gov is the U.S. government's official web portal to all federal, state and local government web resources and services.